sat.trackr.live / text

‹ back to catalog

STARLINK-2590

NORAD 48397 · 2021-038AW

PAYLOAD ACTIVE UNKNOWN

§ Identity

Operator
Country
US
Launch date
2021-05-04
Launch site
AFETR
Launch vehicle
Mass (kg)
RCS (m²)

Purposes: comms

External: N2YO · Heavens-Above · Gunter

§ Orbital elements

Epoch: 2026-05-24T22:49:01.298208Z

Period
94.01 min
Inclination
53.1603°
Eccentricity
0.0001110
Mean motion
15.31723885 rev/d
Perigee alt
469.9 km
Apogee alt
471.4 km
Semi-major
6,848.8 km
B*
1.1547e-4
RAAN
337.9514°
Arg perigee
93.7507°
Mean anomaly
266.3622°
Rev number
28,034

§ Raw data

STARLINK-25901 48397U 21038AW  26144.95070947  .00003222  00000+0  11547-3 0  99922 48397  53.1603 337.9514 0001110  93.7507 266.3622 15.31723885280344

JSON: /api/v1/satellites/48397 · /tle

For live sub-satellite position, see the globe view (requires WebGL).

§ Visibility from observer

Set your observer location to see the next 7 days of passes ≥ 10°. The values pass through the URL so the page stays shareable.

No JS? Fill the form by hand. The geolocation button needs JavaScript.